Terminal Aerodrome Forecast
Issued by NWS Portland, ME

Home | Current Version | Previous Version | Text Only | Print | Product List | Glossary On
Versions: 1 2 3 4 5 6 7 8 9 10 11 12 13 14 15 16 17 18 19
000
FTUS41 KGYX 190500
TAFPWM
TAF
KPWM 190534Z 1906/2006 23004KT P6SM BKN100
     FM191400 30014G24KT P6SM SCT050
     FM191800 32018G28KT P6SM FEW050
     FM200000 32008KT P6SM SKC=

USA.gov is the U.S. government's official web portal to all federal, state and local government web resources and services.